RH
31 32 33 32 32 32 31 31 30 29 28 26 24 22 20 18 16 14 13 12 12 13 13 14 15 18 21 23 26 28 29 30 28 26 24 24 25 26 26 27 27 26
32 33 34 33 33 33 32 31 31 29 27 25 22 20 17 15 14 13 12 12 13 14 14 16 18 21 25 28 30 31 32 33 30 28 27 26 28 29 30 31 31 30
33 34 34 34 34 33 32 31 30 28 26 23 20 17 15 14 13 13 13 13 14 15 16 18 21 25 29 31 33 34 35 35 33 31 30 29 31 32 33 34 33 34
34 35 35 35 34 34 33 31 29 27 24 21 18 16 14 14 14 14 15 16 16 17 19 22 26 30 33 35 37 37 38 38 36 34 33 32 33 34 35 35 35 35
35 36 36 36 35 34 32 30 28 25 22 19 17 16 15 15 16 16 17 18 19 21 23 26 31 35 37 39 40 40 40 41 40 38 36 34 35 35 35 36 37 38
36 37 36 36 35 33 32 29 26 23 20 18 17 16 17 17 17 18 19 21 23 25 28 31 36 40 42 43 43 43 43 43 43 42 40 38 37 38 38 40 41 43
37 37 36 36 35 33 31 27 24 21 19 18 17 18 18 18 20 21 23 25 28 30 33 36 39 43 46 47 46 46 46 46 46 45 43 42 41 42 43 45 47 47
37 38 37 36 35 32 29 25 22 20 19 19 19 20 21 21 22 23 26 29 32 34 36 39 42 45 48 49 49 49 49 50 50 49 48 47 47 47 48 50 52 51
38 38 38 37 35 31 27 24 22 20 20 20 21 22 23 24 24 26 29 33 35 37 39 40 44 47 49 51 52 52 53 53 53 53 52 52 51 51 53 55 56 54
39 39 39 37 34 30 26 23 21 20 20 21 22 23 25 25 26 27 31 35 37 39 41 42 44 47 50 52 54 56 56 55 56 56 56 55 55 56 59 60 59 57
40 40 39 37 33 29 25 22 20 20 20 21 23 25 26 26 27 28 30 35 38 40 42 43 45 48 49 52 55 57 57 56 56 57 58 58 60 62 63 63 60 58
41 41 39 36 32 27 24 21 20 20 20 23 25 27 27 26 27 28 29 33 38 41 43 44 45 47 48 51 54 56 56 57 59 61 62 63 65 66 65 64 61 58
42 42 39 35 31 26 23 20 19 20 22 25 28 28 28 27 27 28 29 31 35 40 42 44 44 46 48 52 55 57 58 61 64 66 67 68 69 67 66 64 61 58
43 42 38 34 30 25 22 20 20 22 25 27 29 30 29 28 27 28 29 31 34 38 41 43 44 47 50 54 57 59 63 66 70 71 71 71 71 69 67 64 61 59
44 41 37 33 29 24 20 19 21 24 27 29 31 31 30 29 28 29 30 32 34 37 39 41 44 46 51 55 58 62 68 72 74 75 75 73 71 68 64 61 59 58
44 41 37 33 27 22 20 20 22 25 28 30 32 32 31 31 30 30 31 33 34 36 37 39 42 46 52 57 62 68 75 76 74 75 74 71 66 61 58 57 57 56
44 41 38 32 25 21 20 20 23 26 29 31 33 33 33 32 31 32 33 35 35 35 36 38 40 46 53 60 68 79 85 82 79 77 74 69 63 59 58 58 58 57
45 43 38 31 24 21 20 21 24 27 30 31 33 34 34 33 33 33 34 35 36 35 36 37 41 48 56 63 73 85 91 89 85 80 75 68 63 62 62 61 61 60
46 43 38 30 24 21 20 22 25 28 30 32 33 34 34 35 35 35 34 35 36 35 36 37 41 48 58 67 78 89 93 92 89 82 74 68 65 66 65 64 63 62
47 44 37 29 23 21 21 23 26 29 31 33 34 34 35 35 36 35 36 36 36 36 36 37 42 49 60 71 82 90 92 92 89 81 73 70 68 68 67 66 66 66
48 44 37 29 24 22 22 25 28 30 32 34 35 35 35 35 36 36 37 37 38 38 37 37 42 50 63 76 84 89 92 92 87 79 73 71 69 69 69 69 70 70
49 44 37 29 24 22 23 26 28 31 34 36 35 35 34 35 36 37 37 38 39 39 37 37 42 52 68 80 85 89 94 92 85 79 75 72 70 71 72 73 74 73
49 44 37 30 25 23 24 27 29 32 35 36 35 34 34 35 36 36 37 38 38 38 36 36 41 55 73 83 86 90 96 93 85 81 76 72 71 73 74 75 76 74
50 45 38 31 26 24 25 27 31 33 36 37 36 35 35 35 36 36 37 38 37 37 36 37 43 59 77 84 86 91 97 94 87 81 76 73 73 75 76 76 75 75
51 46 39 31 27 25 26 29 32 35 37 38 38 37 36 36 36 37 37 37 37 37 37 39 47 62 78 85 87 93 98 97 88 82 78 77 77 76 76 75 75 76
53 48 40 32 27 26 27 31 35 36 37 39 40 39 38 37 37 38 37 37 37 37 38 42 51 64 78 86 89 94 99 98 90 84 82 80 79 78 76 75 76 79
Wind_Speed
51 52 53 53 54 54 54 54 54 54 53 53 52 52 51 51 50 50 49 48 47 45 44 43 42 41 41 40 40 39 38 38 37 37 37 36 36 36 36 37 38 38
53 53 54 55 55 55 55 55 55 54 53 52 52 51 50 50 49 49 48 47 46 45 43 42 41 40 40 40 39 39 38 38 37 37 37 37 37 37 38 38 39 40
54 54 55 55 55 55 55 55 55 54 53 52 51 50 49 49 48 48 47 46 45 44 42 41 40 39 39 39 39 38 38 38 38 38 38 38 38 39 39 40 41 42
54 55 55 55 55 55 55 55 54 53 52 51 50 49 48 47 47 46 45 45 44 42 41 39 39 39 39 38 38 38 38 38 38 38 39 39 39 40 41 42 43 44
55 55 55 54 55 55 55 54 53 52 51 50 49 48 47 46 46 45 44 43 42 41 40 38 38 38 38 38 38 38 38 38 38 39 39 40 41 42 43 44 45 46
55 54 54 54 54 54 54 53 52 51 50 49 48 47 46 45 45 44 43 42 41 40 39 38 37 38 38 38 38 38 38 38 38 39 40 41 42 43 44 46 47 47
54 54 54 54 54 54 53 52 51 49 48 47 47 46 45 44 44 43 42 41 40 39 38 38 37 37 37 38 38 38 38 38 39 40 41 42 43 44 45 46 48 49
54 54 54 54 54 54 52 51 50 48 47 46 45 44 43 43 42 42 41 40 40 39 38 37 37 37 37 37 38 38 38 38 39 40 41 42 44 45 46 47 49 50
54 54 54 54 54 53 52 50 49 48 47 46 44 43 42 41 41 41 40 40 39 39 38 37 37 37 37 37 37 37 38 38 39 41 42 43 45 46 47 48 49 50
54 54 54 54 53 52 51 49 48 47 46 45 44 43 42 41 40 40 40 39 39 38 38 37 37 37 37 37 37 37 38 39 40 41 43 44 46 47 48 49 49 50
53 53 53 53 52 51 50 48 47 47 46 45 44 43 41 40 40 39 39 39 38 38 38 37 37 37 37 37 37 38 39 40 41 42 44 45 46 47 48 49 49 49
52 52 52 52 51 50 49 48 47 46 45 44 43 42 41 40 39 39 38 38 38 37 37 37 37 37 37 37 37 38 39 40 41 43 44 46 46 47 48 48 49 48
51 51 51 51 51 50 48 47 46 45 45 43 42 41 40 40 39 38 38 37 37 37 37 37 37 36 36 36 37 38 39 40 42 43 44 45 46 47 48 48 48 47
50 50 50 50 50 49 48 47 46 44 43 42 41 41 40 39 39 38 37 36 36 36 36 36 36 36 36 36 37 38 39 40 42 43 44 46 47 47 48 48 47 46
49 49 49 49 49 48 47 46 45 44 43 41 40 40 39 39 38 37 36 35 35 35 36 36 36 35 35 36 37 37 38 40 42 43 45 46 47 47 47 47 46 44
48 48 49 48 48 47 46 46 45 43 42 41 39 39 38 38 38 37 36 35 35 35 35 35 35 34 34 35 36 37 39 41 42 44 45 47 47 48 47 46 45 44
48 48 49 48 47 46 46 45 44 43 42 40 40 39 38 38 37 36 36 35 36 35 35 34 34 33 34 34 34 35 38 41 43 44 46 47 48 48 47 46 45 45
48 48 48 47 46 45 45 44 43 42 41 40 40 39 38 37 37 36 35 35 35 35 34 34 33 32 33 34 34 34 37 40 42 44 46 47 47 47 46 46 45 44
47 48 47 46 46 45 44 43 42 42 40 40 40 39 38 37 36 36 35 34 35 35 34 34 32 32 33 33 33 34 36 38 41 44 46 46 46 45 45 45 44 44
47 47 46 46 45 44 44 43 42 41 40 39 39 39 38 38 37 36 35 34 35 35 35 34 32 32 33 33 32 33 35 38 41 43 45 44 44 44 44 44 43 43
46 46 46 45 45 44 43 42 41 41 40 39 39 39 39 38 37 36 35 35 35 35 35 34 31 31 32 32 32 32 35 38 41 43 43 43 43 43 43 43 42 42
45 45 45 45 44 43 42 41 41 40 39 39 39 39 38 38 37 36 36 35 35 35 35 33 31 30 32 32 31 31 34 39 41 42 42 43 43 42 41 41 41 42
44 44 45 44 44 43 42 41 41 40 39 39 39 39 38 38 38 37 36 36 35 35 35 33 30 29 31 32 31 31 34 38 40 41 42 43 42 41 40 40 40 41
43 44 44 44 43 43 42 41 40 40 39 39 40 39 38 38 38 37 36 35 35 35 34 34 31 29 30 31 30 30 33 38 40 42 42 42 42 41 41 40 40 40
42 43 43 43 43 42 42 41 40 40 40 39 39 39 39 38 38 38 36 35 35 34 34 33 32 30 30 31 30 29 32 37 40 42 42 42 42 42 41 40 39 39
42 42 42 42 42 42 41 41 40 40 40 40 39 39 39 38 38 38 37 35 34 34 33 33 33 31 30 30 30 29 31 36 39 41 41 42 42 42 42 40 38 37
Wind_Direction
312 313 313 313 312 312 311 310 309 308 307 305 304 302 300 298 296 295 293 291 290 288 286 283 279 275 273 272 272 272 274 275 275 275 275 275 276 277 278 280 281 283
315 315 314 313 313 312 311 311 310 309 307 305 304 302 300 298 296 294 293 291 289 288 285 282 277 274 272 272 273 274 275 276 276 276 276 276 277 278 279 281 282 283
316 315 314 313 313 312 311 311 310 309 307 306 304 302 300 298 296 295 293 291 289 287 284 280 276 274 273 273 274 275 276 277 277 277 277 277 279 280 281 282 283 284
315 314 313 313 312 312 311 311 310 309 307 306 304 303 301 299 297 295 293 291 289 287 283 280 276 274 274 274 274 275 276 278 278 278 279 279 281 282 283 284 285 286
314 313 312 313 312 312 311 311 310 309 308 306 305 303 302 300 297 295 293 291 289 286 283 280 277 275 274 274 274 275 276 278 279 280 280 281 282 283 285 286 287 288
312 312 313 313 312 312 311 311 310 309 308 307 306 304 303 300 298 296 294 291 289 286 282 279 277 275 275 274 275 275 277 278 280 281 282 283 283 285 286 287 288 289
312 313 313 313 313 312 311 311 310 309 308 307 306 305 303 301 299 296 294 291 288 285 283 280 277 276 275 275 275 276 278 280 281 282 283 284 285 286 287 288 289 290
313 314 314 313 313 312 312 311 311 310 309 308 307 305 303 301 299 296 293 291 288 285 283 280 278 277 276 276 277 278 279 281 282 283 284 285 285 286 287 288 289 290
314 314 314 313 312 312 312 312 311 311 309 308 307 305 303 301 299 296 293 291 288 286 284 282 280 278 278 278 278 279 280 281 282 283 284 285 286 286 287 288 289 290
314 314 313 313 312 312 312 312 311 311 310 309 308 306 304 302 299 297 294 291 289 287 285 283 281 280 280 280 281 281 282 282 283 283 284 284 285 286 287 288 290 291
313 313 313 312 312 312 313 312 312 311 310 309 308 307 305 303 301 298 295 292 290 288 286 284 283 282 281 282 282 283 283 283 284 284 284 284 285 287 288 289 290 291
312 312 313 312 312 313 313 313 312 312 311 310 309 307 306 304 301 299 296 293 291 289 287 285 283 282 282 283 283 283 283 284 284 284 285 286 287 288 288 289 290 292
312 313 313 313 313 313 314 313 312 312 311 310 309 308 307 304 302 299 296 294 291 289 288 286 285 284 283 284 283 284 284 285 285 286 286 287 287 287 288 289 292 294
313 314 313 313 314 314 314 313 313 312 311 310 309 308 307 305 303 300 297 294 292 290 289 287 286 286 285 285 285 285 286 286 287 287 287 287 287 288 289 291 293 296
314 314 313 314 314 314 314 313 312 312 311 310 309 308 307 305 303 301 298 295 292 290 289 288 288 288 288 287 287 287 287 287 287 287 287 286 287 288 289 292 294 296
315 314 314 314 314 313 313 313 312 312 311 310 309 308 307 305 303 301 299 296 293 290 289 289 288 289 289 288 288 289 289 288 288 287 288 287 288 290 292 295 297 298
315 314 314 314 314 313 313 312 312 312 311 310 309 308 307 305 304 302 299 296 294 291 290 289 288 289 289 288 289 290 289 289 289 289 289 289 291 293 296 298 299 300
314 314 314 314 313 313 313 313 312 312 311 310 309 308 307 306 305 302 299 297 294 292 290 289 289 290 290 289 290 289 288 288 288 288 288 289 292 295 298 299 300 301
313 314 314 313 313 313 312 313 312 311 311 310 309 309 307 306 305 303 301 298 296 294 292 291 292 292 290 289 289 288 287 286 286 286 288 291 294 296 297 299 301 302
313 314 314 313 313 313 312 313 312 310 310 310 309 308 307 306 306 304 303 300 298 296 294 294 294 293 290 289 288 287 286 285 285 286 288 291 294 296 297 299 301 302
314 314 314 313 313 313 312 312 311 310 311 310 309 308 307 307 306 306 305 303 301 298 296 295 295 292 290 289 288 288 287 286 285 287 289 292 294 296 299 300 302 302
314 314 314 313 313 312 312 312 311 311 310 309 309 308 308 307 307 307 306 304 302 299 296 295 294 292 290 290 290 291 289 287 287 289 291 293 295 298 299 301 302 302
315 314 314 313 313 313 312 312 311 311 311 310 309 309 309 308 308 307 307 305 302 300 297 295 295 294 291 291 293 293 290 288 289 290 291 294 297 299 300 301 302 302
315 314 314 313 313 313 312 312 312 311 311 311 310 310 310 310 309 308 307 305 303 301 298 297 297 295 293 293 294 294 291 289 290 291 293 296 299 300 301 302 303 303
315 314 314 313 313 313 312 312 312 312 311 311 311 311 311 311 310 308 307 306 304 301 300 298 297 296 294 295 296 295 292 291 291 293 295 298 299 300 301 302 304 306
315 314 314 314 313 313 313 313 312 312 312 312 312 312 312 311 311 309 307 307 305 302 301 299 298 297 296 297 297 296 293 291 292 294 296 298 299 299 300 303 306 308